Hourly Data Report for May 02, 2012

All times are specified in Local Standard Time (LST). Add 1 hour to adjust for Daylight Saving Time where and when it is observed.

YARMOUTH A
NOVA SCOTIA

43°49'37.000" N
66°05'17.000" W
42.90 m
8206495
71603
YQI

Download Data

Hourly Data (May 2012)
Hourly Data Report for May 2, 2012
Temp Definition
°C
Dew Point Temp Definition
°C
Rel Hum Definition
%
Wind Dir Definition
10's deg

Wind Spd Definition
km/h
Visibility Definition
km
Stn Press Definition
kPa
Hmdx Definition


Wind Chill Definition


Weather Definition


TIME
00:00 Legend Double Dagger 3.5 2.3 92 10 14 10.0 101.86     Rain Showers
01:00 Legend Double Dagger 3.4 2.4 93 9 12 10.0 101.86     LegendNANA
02:00 Legend Double Dagger 3.2 2.6 96 9 14 9.7 101.83     Rain Showers,Fog
03:00 Legend Double Dagger 3.2 2.8 97 10 16 10.0 101.76     Rain Showers
04:00 Legend Double Dagger 3.3 2.7 96 9 14 10.0 101.73     LegendNANA
05:00 Legend Double Dagger 3.5 2.8 95 10 9 10.0 101.86     Mostly Cloudy
06:00 Legend Double Dagger 3.6 2.9 95 10 12 10.0 101.91     LegendNANA
07:00 Legend Double Dagger 4.0 3.3 95 10 13 10.0 101.90     LegendNANA
08:00 Legend Double Dagger 4.6 3.4 92 11 13 10.0 101.93     Cloudy
09:00 Legend Double Dagger 5.4 3.7 89 10 17 10.0 101.94     Rain
10:00 Legend Double Dagger 6.9 4.2 83 12 19 10.0 101.94     LegendNANA
11:00 Legend Double Dagger 7.5 3.8 77 10 11 10.0 101.99     Cloudy
12:00 Legend Double Dagger 9.0 3.9 70 11 8 10.0 101.90     Rain
13:00 Legend Double Dagger 8.8 3.7 70 8 5 10.0 101.90     LegendNANA
14:00 Legend Double Dagger 7.2 5.2 87 32 15 10.0 101.89     Rain
15:00 Legend Double Dagger 8.0 5.0 81 32 17 10.0 101.87     LegendNANA
16:00 Legend Double Dagger 8.3 5.1 80 30 14 10.0 101.82     LegendNANA
17:00 Legend Double Dagger 7.8 5.1 83 31 14 10.0 101.84     Cloudy
18:00 Legend Double Dagger 7.7 4.8 82 33 17 10.0 101.84     LegendNANA
19:00 Legend Double Dagger 7.0 4.5 84 33 12 10.0 101.82     LegendNANA
20:00 Legend Double Dagger 6.3 4.1 86 34 10 10.0 101.84     Cloudy
21:00 Legend Double Dagger 4.8 3.3 90 35 10 0.0 101.85     LegendNANA
22:00 Legend Double Dagger 3.9 2.7 92 34 11 10.0 101.85     LegendNANA
23:00 Legend Double Dagger 3.8 2.9 94 36 9 10.0 101.82     Mainly Clear

Notes on Data Quality.

Legend

  • E = Estimated
  • M = Missing
  • NA = Not Available
  • ‡ = Partner data that is not subject to review by the National Climate Archives
Date modified: